contact:dominique.lefevre@mio.osupytheas.fr, maurice.libes@osupytheas.fr, didier.mallarino@osupytheas.fr
Project:EMSO http://www.emso-fr.org/EMSO-France
Depth: 2436.0 m
Title:EMSO Ligure Ouest : Data MII capteur CSTAR
DateTime,Latitude,Longitude,Instrument_Serial,Reference_Counts,Signal_Counts,Corrected_Signal_raw_counts,Calculated_Beam_c_inverse_meters,Internal_thermistor_counts
DateTime,Latitude,Longitude,Instrument_Serial,Reference_Counts,Signal_Counts,Corrected_Signal_raw_counts,Calculated_Beam_c_inverse_meters,Internal_thermistor_counts
2023-03-05T00:00:35,42.805,6.029,CST-1368DR,4363,4796,11677,01.163,551
2023-03-05T00:03:37,42.805,6.029,CST-1368DR,4362,4794,11675,01.163,551
2023-03-05T00:06:38,42.805,6.029,CST-1368DR,4362,4796,11680,01.162,551
2023-03-05T00:09:40,42.805,6.029,CST-1368DR,4362,4796,11679,01.162,551
2023-03-05T00:12:41,42.805,6.029,CST-1368DR,4362,4791,11667,01.166,551
2023-03-05T00:15:43,42.805,6.029,CST-1368DR,4363,4797,11679,01.162,551
2023-03-05T00:18:45,42.805,6.029,CST-1368DR,4363,4792,11668,01.166,551
2023-03-05T00:21:46,42.805,6.029,CST-1368DR,4363,4797,11680,01.162,551
2023-03-05T00:24:48,42.805,6.029,CST-1368DR,4363,4796,11677,01.163,551
2023-03-05T00:27:49,42.805,6.029,CST-1368DR,4363,4798,11681,01.161,551
2023-03-05T00:30:51,42.805,6.029,CST-1368DR,4363,4797,11680,01.162,551
2023-03-05T00:33:53,42.805,6.029,CST-1368DR,4363,4794,11672,01.164,551
2023-03-05T00:36:54,42.805,6.029,CST-1368DR,4363,4796,11677,01.163,551
2023-03-05T00:39:56,42.805,6.029,CST-1368DR,4363,4797,11679,01.162,551
2023-03-05T00:42:57,42.805,6.029,CST-1368DR,4363,4798,11682,01.161,551
2023-03-05T00:45:59,42.805,6.029,CST-1368DR,4363,4797,11680,01.162,551
2023-03-05T00:49:00,42.805,6.029,CST-1368DR,4363,4796,11676,01.163,551
2023-03-05T00:52:02,42.805,6.029,CST-1368DR,4362,4797,11682,01.161,551
2023-03-05T00:55:04,42.805,6.029,CST-1368DR,4363,4795,11674,01.164,551
2023-03-05T00:58:05,42.805,6.029,CST-1368DR,4363,4792,11668,01.166,551
2023-03-05T01:01:07,42.805,6.029,CST-1368DR,4363,4792,11668,01.166,551
2023-03-05T01:04:08,42.805,6.029,CST-1368DR,4363,4791,11666,01.166,551
2023-03-05T01:07:10,42.805,6.029,CST-1368DR,4363,4795,11674,01.164,551
2023-03-05T01:10:11,42.805,6.029,CST-1368DR,4363,4792,11668,01.166,551
2023-03-05T01:13:13,42.805,6.029,CST-1368DR,4363,4792,11668,01.166,551
2023-03-05T01:16:15,42.805,6.029,CST-1368DR,4363,4795,11674,01.164,551
2023-03-05T01:19:16,42.805,6.029,CST-1368DR,4363,4795,11674,01.164,551
2023-03-05T01:22:18,42.805,6.029,CST-1368DR,4363,4798,11682,01.161,551
2023-03-05T01:25:19,42.805,6.029,CST-1368DR,4363,4798,11682,01.161,551
2023-03-05T01:28:21,42.805,6.029,CST-1368DR,4363,4798,11681,01.161,551
2023-03-05T01:31:23,42.805,6.029,CST-1368DR,4363,4795,11675,01.163,551
2023-03-05T01:34:24,42.805,6.029,CST-1368DR,4363,4797,11680,01.162,551
2023-03-05T01:37:26,42.805,6.029,CST-1368DR,4363,4800,11686,01.160,551
2023-03-05T01:40:27,42.805,6.029,CST-1368DR,4363,4798,11682,01.161,551
2023-03-05T01:43:29,42.805,6.029,CST-1368DR,4363,4799,11684,01.160,551
2023-03-05T01:46:30,42.805,6.029,CST-1368DR,4363,4800,11686,01.160,551
2023-03-05T01:49:32,42.805,6.029,CST-1368DR,4363,4798,11683,01.161,551
2023-03-05T01:52:34,42.805,6.029,CST-1368DR,4363,4798,11682,01.161,551
2023-03-05T01:55:35,42.805,6.029,CST-1368DR,4363,4796,11678,01.162,551
2023-03-05T01:58:37,42.805,6.029,CST-1368DR,4363,4795,11674,01.164,551
2023-03-05T02:01:38,42.805,6.029,CST-1368DR,4363,4796,11677,01.163,551
2023-03-05T02:04:40,42.805,6.029,CST-1368DR,4363,4796,11678,01.162,551
2023-03-05T02:07:42,42.805,6.029,CST-1368DR,4363,4796,11678,01.162,551
2023-03-05T02:10:43,42.805,6.029,CST-1368DR,4363,4797,11679,01.162,551
2023-03-05T02:13:45,42.805,6.029,CST-1368DR,4363,4795,11674,01.164,551
2023-03-05T02:16:46,42.805,6.029,CST-1368DR,4363,4793,11670,01.165,551
2023-03-05T02:19:48,42.805,6.029,CST-1368DR,4363,4795,11674,01.164,551
2023-03-05T02:22:49,42.805,6.029,CST-1368DR,4363,4796,11677,01.163,551
2023-03-05T02:25:51,42.805,6.029,CST-1368DR,4363,4796,11677,01.163,551
2023-03-05T02:28:53,42.805,6.029,CST-1368DR,4363,4794,11671,01.165,551
2023-03-05T02:31:54,42.805,6.029,CST-1368DR,4363,4797,11679,01.162,551
2023-03-05T02:34:56,42.805,6.029,CST-1368DR,4363,4794,11671,01.165,551
2023-03-05T02:37:57,42.805,6.029,CST-1368DR,4363,4795,11674,01.164,551
2023-03-05T02:40:59,42.805,6.029,CST-1368DR,4363,4794,11673,01.164,551
2023-03-05T02:44:00,42.805,6.029,CST-1368DR,4363,4797,11679,01.162,551
2023-03-05T02:47:02,42.805,6.029,CST-1368DR,4363,4796,11676,01.163,551
2023-03-05T02:50:04,42.805,6.029,CST-1368DR,4363,4797,11680,01.162,551
2023-03-05T02:53:05,42.805,6.029,CST-1368DR,4363,4797,11680,01.162,551
2023-03-05T02:56:07,42.805,6.029,CST-1368DR,4363,4798,11683,01.161,551
2023-03-05T02:59:08,42.805,6.029,CST-1368DR,4363,4796,11678,01.162,551
2023-03-05T03:02:10,42.805,6.029,CST-1368DR,4363,4794,11672,01.164,551
2023-03-05T03:05:11,42.805,6.029,CST-1368DR,4363,4784,11648,01.173,551
2023-03-05T03:08:13,42.805,6.029,CST-1368DR,4363,4790,11662,01.168,551
2023-03-05T03:11:15,42.805,6.029,CST-1368DR,4363,4792,11666,01.166,551
2023-03-05T03:14:16,42.805,6.029,CST-1368DR,4363,4792,11668,01.166,551
2023-03-05T03:17:18,42.805,6.029,CST-1368DR,4363,4791,11665,01.167,551
2023-03-05T03:20:19,42.805,6.029,CST-1368DR,4363,4792,11668,01.166,551
2023-03-05T03:23:21,42.805,6.029,CST-1368DR,4363,4790,11663,01.167,551
2023-03-05T03:26:23,42.805,6.029,CST-1368DR,4363,4792,11668,01.166,551
2023-03-05T03:29:24,42.805,6.029,CST-1368DR,4363,4791,11665,01.167,551
2023-03-05T03:32:26,42.805,6.029,CST-1368DR,4363,4793,11670,01.165,551
2023-03-05T03:35:27,42.805,6.029,CST-1368DR,4363,4792,11668,01.166,551
2023-03-05T03:38:29,42.805,6.029,CST-1368DR,4363,4791,11665,01.167,551
2023-03-05T03:41:30,42.805,6.029,CST-1368DR,4363,4791,11665,01.167,551
2023-03-05T03:44:32,42.805,6.029,CST-1368DR,4363,4792,11666,01.166,551
2023-03-05T03:47:34,42.805,6.029,CST-1368DR,4363,4791,11665,01.167,551
2023-03-05T03:50:35,42.805,6.029,CST-1368DR,4363,4786,11652,01.171,551
2023-03-05T03:53:37,42.805,6.029,CST-1368DR,4363,4791,11665,01.167,551
2023-03-05T03:56:38,42.805,6.029,CST-1368DR,4363,4791,11666,01.166,551
2023-03-05T03:59:40,42.805,6.029,CST-1368DR,4363,4791,11666,01.166,551
2023-03-05T04:02:42,42.805,6.029,CST-1368DR,4363,4791,11665,01.167,551
2023-03-05T04:05:43,42.805,6.029,CST-1368DR,4363,4791,11665,01.167,551
2023-03-05T04:08:45,42.805,6.029,CST-1368DR,4363,4791,11666,01.166,551
2023-03-05T04:11:46,42.805,6.029,CST-1368DR,4363,4793,11670,01.165,551
2023-03-05T04:14:48,42.805,6.029,CST-1368DR,4363,4793,11669,01.165,551
2023-03-05T04:17:49,42.805,6.029,CST-1368DR,4363,4791,11665,01.167,551
2023-03-05T04:20:51,42.805,6.029,CST-1368DR,4363,4789,11661,01.168,551
2023-03-05T04:23:53,42.805,6.029,CST-1368DR,4363,4791,11665,01.167,551
2023-03-05T04:26:54,42.805,6.029,CST-1368DR,4363,4797,11679,01.162,551
2023-03-05T04:29:56,42.805,6.029,CST-1368DR,4363,4793,11670,01.165,551
2023-03-05T04:32:57,42.805,6.029,CST-1368DR,4363,4792,11668,01.166,551
2023-03-05T04:35:59,42.805,6.029,CST-1368DR,4363,4791,11665,01.167,551
2023-03-05T04:39:00,42.805,6.029,CST-1368DR,4363,4793,11670,01.165,551
2023-03-05T04:42:02,42.805,6.029,CST-1368DR,4363,4793,11670,01.165,551
2023-03-05T04:45:04,42.805,6.029,CST-1368DR,4363,4788,11657,01.170,551
2023-03-05T04:48:05,42.805,6.029,CST-1368DR,4363,4793,11669,01.165,551
2023-03-05T04:51:07,42.805,6.029,CST-1368DR,4363,4790,11663,01.167,551
2023-03-05T04:54:08,42.805,6.029,CST-1368DR,4363,4792,11668,01.166,551
2023-03-05T04:57:10,42.805,6.029,CST-1368DR,4363,4793,11669,01.165,551
2023-03-05T05:00:12,42.805,6.029,CST-1368DR,4363,4792,11666,01.166,551
2023-03-05T05:03:13,42.805,6.029,CST-1368DR,4363,4791,11665,01.167,551
2023-03-05T05:06:15,42.805,6.029,CST-1368DR,4363,4791,11665,01.167,551
2023-03-05T05:09:16,42.805,6.029,CST-1368DR,4363,4792,11668,01.166,551
2023-03-05T05:12:18,42.805,6.029,CST-1368DR,4363,4792,11666,01.166,551
2023-03-05T05:15:19,42.805,6.029,CST-1368DR,4363,4791,11665,01.167,551
2023-03-05T05:18:21,42.805,6.029,CST-1368DR,4363,4788,11658,01.169,551
2023-03-05T05:21:23,42.805,6.029,CST-1368DR,4363,4789,11660,01.169,551
2023-03-05T05:24:24,42.805,6.029,CST-1368DR,4363,4791,11664,01.167,551
2023-03-05T05:27:26,42.805,6.029,CST-1368DR,4363,4791,11666,01.166,551
2023-03-05T05:30:27,42.805,6.029,CST-1368DR,4363,4790,11662,01.168,551
2023-03-05T05:33:29,42.805,6.029,CST-1368DR,4363,4792,11668,01.166,551
2023-03-05T05:36:30,42.805,6.029,CST-1368DR,4363,4788,11658,01.169,551
2023-03-05T05:39:32,42.805,6.029,CST-1368DR,4363,4791,11665,01.167,551
2023-03-05T05:42:34,42.805,6.029,CST-1368DR,4363,4786,11654,01.171,551
2023-03-05T05:45:35,42.805,6.029,CST-1368DR,4363,4793,11671,01.165,551
2023-03-05T05:48:37,42.805,6.029,CST-1368DR,4363,4795,11674,01.164,551
2023-03-05T05:51:38,42.805,6.029,CST-1368DR,4363,4797,11680,01.162,551
2023-03-05T05:54:40,42.805,6.029,CST-1368DR,4363,4788,11657,01.170,551
2023-03-05T05:57:42,42.805,6.029,CST-1368DR,4363,4787,11656,01.170,551
2023-03-05T06:00:43,42.805,6.029,CST-1368DR,4363,4786,11654,01.171,551
2023-03-05T06:03:45,42.805,6.029,CST-1368DR,4363,4788,11658,01.169,551
2023-03-05T06:06:46,42.805,6.029,CST-1368DR,4363,4788,11658,01.169,551
2023-03-05T06:09:48,42.805,6.029,CST-1368DR,4363,4786,11654,01.171,551
2023-03-05T06:12:49,42.805,6.029,CST-1368DR,4363,4788,11657,01.170,551
2023-03-05T06:15:51,42.805,6.029,CST-1368DR,4363,4786,11653,01.171,551
2023-03-05T06:18:53,42.805,6.029,CST-1368DR,4363,4787,11656,01.170,551
2023-03-05T06:21:54,42.805,6.029,CST-1368DR,4363,4789,11660,01.169,551
2023-03-05T06:24:56,42.805,6.029,CST-1368DR,4363,4788,11657,01.170,551
2023-03-05T06:27:57,42.805,6.029,CST-1368DR,4363,4788,11657,01.170,551
2023-03-05T06:30:59,42.805,6.029,CST-1368DR,4363,4790,11662,01.168,551
2023-03-05T06:34:00,42.805,6.029,CST-1368DR,4363,4790,11662,01.168,551
2023-03-05T06:37:02,42.805,6.029,CST-1368DR,4363,4772,11618,01.183,551
2023-03-05T06:40:04,42.805,6.029,CST-1368DR,4363,4788,11658,01.169,551
2023-03-05T06:43:05,42.805,6.029,CST-1368DR,4363,4787,11654,01.171,551
2023-03-05T06:46:07,42.805,6.029,CST-1368DR,4363,4787,11656,01.170,551
2023-03-05T06:49:08,42.805,6.029,CST-1368DR,4363,4788,11658,01.169,551
2023-03-05T06:52:10,42.805,6.029,CST-1368DR,4363,4784,11649,01.172,551
2023-03-05T06:55:11,42.805,6.029,CST-1368DR,4363,4788,11658,01.169,551
2023-03-05T06:58:13,42.805,6.029,CST-1368DR,4363,4785,11651,01.172,551
2023-03-05T07:01:15,42.805,6.029,CST-1368DR,4363,4790,11662,01.168,551
2023-03-05T07:04:16,42.805,6.029,CST-1368DR,4363,4788,11659,01.169,551
2023-03-05T07:07:18,42.805,6.029,CST-1368DR,4363,4792,11668,01.166,551
2023-03-05T07:10:19,42.805,6.029,CST-1368DR,4363,4788,11658,01.169,551
2023-03-05T07:13:21,42.805,6.029,CST-1368DR,4363,4789,11660,01.169,551
2023-03-05T07:16:23,42.805,6.029,CST-1368DR,4363,4788,11657,01.170,551
2023-03-05T07:19:24,42.805,6.029,CST-1368DR,4363,4788,11657,01.170,551
2023-03-05T07:22:26,42.805,6.029,CST-1368DR,4363,4786,11653,01.171,551
2023-03-05T07:25:27,42.805,6.029,CST-1368DR,4363,4785,11649,01.172,551
2023-03-05T07:28:29,42.805,6.029,CST-1368DR,4363,4787,11654,01.171,551
2023-03-05T07:31:30,42.805,6.029,CST-1368DR,4363,4782,11643,01.174,551
2023-03-05T07:34:32,42.805,6.029,CST-1368DR,4363,4787,11654,01.171,551
2023-03-05T07:37:34,42.805,6.029,CST-1368DR,4363,4786,11652,01.171,551
2023-03-05T07:40:35,42.805,6.029,CST-1368DR,4363,4784,11648,01.173,551
2023-03-05T07:43:37,42.805,6.029,CST-1368DR,4363,4785,11649,01.172,551
2023-03-05T07:46:38,42.805,6.029,CST-1368DR,4363,4785,11649,01.172,551
2023-03-05T07:49:40,42.805,6.029,CST-1368DR,4363,4785,11650,01.172,551
2023-03-05T07:52:41,42.805,6.029,CST-1368DR,4363,4785,11649,01.172,551
2023-03-05T07:55:43,42.805,6.029,CST-1368DR,4363,4784,11649,01.172,551
2023-03-05T07:58:45,42.805,6.029,CST-1368DR,4363,4784,11649,01.172,551
2023-03-05T08:01:46,42.805,6.029,CST-1368DR,4363,4784,11647,01.173,551
2023-03-05T08:04:48,42.805,6.029,CST-1368DR,4363,4784,11648,01.173,551
2023-03-05T08:07:49,42.805,6.029,CST-1368DR,4363,4781,11641,01.175,551
2023-03-05T08:10:51,42.805,6.029,CST-1368DR,4363,4784,11649,01.172,551
2023-03-05T08:13:53,42.805,6.029,CST-1368DR,4363,4784,11648,01.173,551
2023-03-05T08:16:54,42.805,6.029,CST-1368DR,4363,4783,11646,01.173,551
2023-03-05T08:19:56,42.805,6.029,CST-1368DR,4363,4780,11638,01.176,551
2023-03-05T08:22:57,42.805,6.029,CST-1368DR,4363,4784,11648,01.173,551
2023-03-05T08:25:59,42.805,6.029,CST-1368DR,4363,4784,11647,01.173,551
2023-03-05T08:29:00,42.805,6.029,CST-1368DR,4363,4786,11652,01.171,551
2023-03-05T08:32:02,42.805,6.029,CST-1368DR,4363,4785,11650,01.172,551
2023-03-05T08:35:04,42.805,6.029,CST-1368DR,4363,4786,11652,01.171,551
2023-03-05T08:38:05,42.805,6.029,CST-1368DR,4363,4786,11652,01.171,551
2023-03-05T08:41:07,42.805,6.029,CST-1368DR,4363,4784,11648,01.173,551
2023-03-05T08:44:08,42.805,6.029,CST-1368DR,4363,4784,11648,01.173,551
2023-03-05T08:47:10,42.805,6.029,CST-1368DR,4363,4783,11645,01.174,551
2023-03-05T08:50:11,42.805,6.029,CST-1368DR,4363,4786,11652,01.171,551
2023-03-05T08:53:13,42.805,6.029,CST-1368DR,4363,4785,11650,01.172,551
2023-03-05T08:56:15,42.805,6.029,CST-1368DR,4363,4785,11651,01.172,551
2023-03-05T08:59:16,42.805,6.029,CST-1368DR,4363,4782,11643,01.174,551
2023-03-05T09:02:18,42.805,6.029,CST-1368DR,4363,4785,11650,01.172,551
2023-03-05T09:05:19,42.805,6.029,CST-1368DR,4363,4784,11649,01.172,551
2023-03-05T09:08:21,42.805,6.029,CST-1368DR,4363,4783,11646,01.173,551
2023-03-05T09:11:23,42.805,6.029,CST-1368DR,4363,4783,11646,01.173,551
2023-03-05T09:14:24,42.805,6.029,CST-1368DR,4363,4784,11647,01.173,551
2023-03-05T09:17:26,42.805,6.029,CST-1368DR,4363,4783,11646,01.173,551
2023-03-05T09:20:27,42.805,6.029,CST-1368DR,4363,4782,11644,01.174,551
2023-03-05T09:23:29,42.805,6.029,CST-1368DR,4363,4783,11646,01.173,551
2023-03-05T09:26:30,42.805,6.029,CST-1368DR,4363,4782,11644,01.174,551
2023-03-05T09:29:32,42.805,6.029,CST-1368DR,4363,4783,11646,01.173,551
2023-03-05T09:32:34,42.805,6.029,CST-1368DR,4363,4779,11635,01.177,551
2023-03-05T09:35:35,42.805,6.029,CST-1368DR,4363,4783,11645,01.174,551
2023-03-05T09:38:37,42.805,6.029,CST-1368DR,4363,4783,11646,01.173,551
2023-03-05T09:41:38,42.805,6.029,CST-1368DR,4363,4783,11645,01.174,551
2023-03-05T09:44:40,42.805,6.029,CST-1368DR,4363,4783,11645,01.174,551
2023-03-05T09:47:41,42.805,6.029,CST-1368DR,4363,4784,11647,01.173,551
2023-03-05T09:50:43,42.805,6.029,CST-1368DR,4363,4783,11645,01.174,551
2023-03-05T09:53:45,42.805,6.029,CST-1368DR,4363,4783,11645,01.174,551
2023-03-05T09:56:46,42.805,6.029,CST-1368DR,4363,4783,11646,01.173,551
2023-03-05T09:59:48,42.805,6.029,CST-1368DR,4363,4783,11646,01.173,551
2023-03-05T10:02:49,42.805,6.029,CST-1368DR,4363,4784,11648,01.173,551
2023-03-05T10:05:51,42.805,6.029,CST-1368DR,4363,4784,11647,01.173,551
2023-03-05T10:08:53,42.805,6.029,CST-1368DR,4363,4786,11652,01.171,551
2023-03-05T10:11:54,42.805,6.029,CST-1368DR,4363,4798,11682,01.161,551
2023-03-05T10:14:56,42.805,6.029,CST-1368DR,4363,4784,11649,01.172,551
2023-03-05T10:17:57,42.805,6.029,CST-1368DR,4363,4785,11651,01.172,551
2023-03-05T10:20:59,42.805,6.029,CST-1368DR,4363,4780,11637,01.176,551
2023-03-05T10:24:00,42.805,6.029,CST-1368DR,4363,4790,11662,01.168,551
2023-03-05T10:27:02,42.805,6.029,CST-1368DR,4363,4786,11652,01.171,551
2023-03-05T10:30:04,42.805,6.029,CST-1368DR,4363,4786,11652,01.171,551
2023-03-05T10:33:05,42.805,6.029,CST-1368DR,4363,4785,11651,01.172,551
2023-03-05T10:36:07,42.805,6.029,CST-1368DR,4363,4783,11646,01.173,551
2023-03-05T10:39:08,42.805,6.029,CST-1368DR,4363,4784,11648,01.173,551
2023-03-05T10:42:10,42.805,6.029,CST-1368DR,4363,4781,11640,01.175,551
2023-03-05T10:45:11,42.805,6.029,CST-1368DR,4363,4786,11652,01.171,551
2023-03-05T10:48:13,42.805,6.029,CST-1368DR,4363,4786,11652,01.171,551
2023-03-05T10:51:15,42.805,6.029,CST-1368DR,4363,4786,11653,01.171,551
2023-03-05T10:54:16,42.805,6.029,CST-1368DR,4363,4786,11652,01.171,551
2023-03-05T10:57:18,42.805,6.029,CST-1368DR,4363,4783,11646,01.173,551
2023-03-05T11:00:19,42.805,6.029,CST-1368DR,4363,4788,11658,01.169,551
2023-03-05T11:03:21,42.805,6.029,CST-1368DR,4363,4788,11659,01.169,551
2023-03-05T11:06:23,42.805,6.029,CST-1368DR,4363,4790,11662,01.168,551
2023-03-05T11:09:24,42.805,6.029,CST-1368DR,4363,4789,11660,01.169,551
2023-03-05T11:12:26,42.805,6.029,CST-1368DR,4363,4793,11670,01.165,551
2023-03-05T11:15:27,42.805,6.029,CST-1368DR,4363,4790,11662,01.168,551
2023-03-05T11:18:29,42.805,6.029,CST-1368DR,4363,4790,11662,01.168,551
2023-03-05T11:21:30,42.805,6.029,CST-1368DR,4363,4786,11652,01.171,551
2023-03-05T11:24:32,42.805,6.029,CST-1368DR,4363,4790,11662,01.168,551
2023-03-05T11:27:34,42.805,6.029,CST-1368DR,4363,4790,11663,01.167,551
2023-03-05T11:30:35,42.805,6.029,CST-1368DR,4363,4789,11660,01.169,551
2023-03-05T11:33:37,42.805,6.029,CST-1368DR,4363,4789,11660,01.169,551
2023-03-05T11:36:38,42.805,6.029,CST-1368DR,4363,4788,11657,01.170,551
2023-03-05T11:39:40,42.805,6.029,CST-1368DR,4363,4787,11656,01.170,551
2023-03-05T11:42:41,42.805,6.029,CST-1368DR,4363,4789,11660,01.169,551
2023-03-05T11:45:43,42.805,6.029,CST-1368DR,4363,4788,11658,01.169,551
2023-03-05T11:48:45,42.805,6.029,CST-1368DR,4363,4787,11656,01.170,551
2023-03-05T11:51:46,42.805,6.029,CST-1368DR,4363,4786,11653,01.171,551
2023-03-05T11:54:48,42.805,6.029,CST-1368DR,4363,4789,11660,01.169,551
2023-03-05T11:57:49,42.805,6.029,CST-1368DR,4363,4790,11663,01.167,551
2023-03-05T12:00:51,42.805,6.029,CST-1368DR,4363,4788,11659,01.169,551
2023-03-05T12:03:53,42.805,6.029,CST-1368DR,4363,4789,11660,01.169,551
2023-03-05T12:06:54,42.805,6.029,CST-1368DR,4363,4788,11657,01.170,551
2023-03-05T12:09:56,42.805,6.029,CST-1368DR,4363,4790,11662,01.168,551
2023-03-05T12:12:57,42.805,6.029,CST-1368DR,4363,4790,11662,01.168,551
2023-03-05T12:15:59,42.805,6.029,CST-1368DR,4363,4789,11660,01.169,551
2023-03-05T12:19:00,42.805,6.029,CST-1368DR,4363,4788,11659,01.169,551
2023-03-05T12:22:02,42.805,6.029,CST-1368DR,4363,4788,11657,01.170,551
2023-03-05T12:25:04,42.805,6.029,CST-1368DR,4363,4801,11689,01.159,551
2023-03-05T12:28:05,42.805,6.029,CST-1368DR,4363,4789,11661,01.168,551
2023-03-05T12:31:07,42.805,6.029,CST-1368DR,4363,4788,11659,01.169,551
2023-03-05T12:34:08,42.805,6.029,CST-1368DR,4363,4789,11660,01.169,551
2023-03-05T12:37:10,42.805,6.029,CST-1368DR,4363,4790,11662,01.168,551
2023-03-05T12:40:11,42.805,6.029,CST-1368DR,4363,4789,11660,01.169,551
2023-03-05T12:43:13,42.805,6.029,CST-1368DR,4363,4790,11662,01.168,551
2023-03-05T12:46:15,42.805,6.029,CST-1368DR,4363,4790,11662,01.168,551
2023-03-05T12:49:16,42.805,6.029,CST-1368DR,4363,4790,11662,01.168,551
2023-03-05T12:52:18,42.805,6.029,CST-1368DR,4363,4790,11662,01.168,551
2023-03-05T12:55:19,42.805,6.029,CST-1368DR,4363,4788,11657,01.170,551
2023-03-05T12:58:21,42.805,6.029,CST-1368DR,4363,4791,11665,01.167,551
2023-03-05T13:01:23,42.805,6.029,CST-1368DR,4363,4791,11665,01.167,551
2023-03-05T13:04:24,42.805,6.029,CST-1368DR,4363,4791,11665,01.167,551
2023-03-05T13:07:26,42.805,6.029,CST-1368DR,4363,4790,11663,01.167,551
2023-03-05T13:10:27,42.805,6.029,CST-1368DR,4363,4793,11669,01.165,551
2023-03-05T13:13:29,42.805,6.029,CST-1368DR,4363,4792,11666,01.166,551
2023-03-05T13:16:30,42.805,6.029,CST-1368DR,4363,4792,11668,01.166,551
2023-03-05T13:19:32,42.805,6.029,CST-1368DR,4363,4792,11668,01.166,551
2023-03-05T13:22:34,42.805,6.029,CST-1368DR,4363,4792,11666,01.166,551
2023-03-05T13:25:35,42.805,6.029,CST-1368DR,4363,4788,11659,01.169,551
2023-03-05T13:28:37,42.805,6.029,CST-1368DR,4363,4792,11668,01.166,551
2023-03-05T13:31:38,42.805,6.029,CST-1368DR,4363,4791,11666,01.166,551
2023-03-05T13:34:40,42.805,6.029,CST-1368DR,4363,4791,11665,01.167,551
2023-03-05T13:37:41,42.805,6.029,CST-1368DR,4363,4791,11665,01.167,551
2023-03-05T13:40:43,42.805,6.029,CST-1368DR,4363,4792,11668,01.166,551
2023-03-05T13:43:45,42.805,6.029,CST-1368DR,4363,4790,11663,01.167,551
2023-03-05T13:46:46,42.805,6.029,CST-1368DR,4363,4791,11664,01.167,551
2023-03-05T13:49:48,42.805,6.029,CST-1368DR,4363,4789,11660,01.169,551
2023-03-05T13:52:49,42.805,6.029,CST-1368DR,4363,4787,11656,01.170,551
2023-03-05T13:55:51,42.805,6.029,CST-1368DR,4363,4792,11668,01.166,551
2023-03-05T13:58:52,42.805,6.029,CST-1368DR,4363,4790,11663,01.167,551
2023-03-05T14:01:54,42.805,6.029,CST-1368DR,4363,4789,11661,01.168,551
2023-03-05T14:04:56,42.805,6.029,CST-1368DR,4363,4791,11664,01.167,551
2023-03-05T14:07:57,42.805,6.029,CST-1368DR,4363,4789,11660,01.169,551
2023-03-05T14:10:59,42.805,6.029,CST-1368DR,4363,4791,11665,01.167,551
2023-03-05T14:14:00,42.805,6.029,CST-1368DR,4363,4790,11663,01.167,551
2023-03-05T14:17:02,42.805,6.029,CST-1368DR,4363,4790,11662,01.168,551
2023-03-05T14:20:04,42.805,6.029,CST-1368DR,4363,4792,11668,01.166,551
2023-03-05T14:23:05,42.805,6.029,CST-1368DR,4363,4791,11665,01.167,551
2023-03-05T14:26:07,42.805,6.029,CST-1368DR,4363,4788,11659,01.169,551
2023-03-05T14:29:08,42.805,6.029,CST-1368DR,4363,4790,11662,01.168,551
2023-03-05T14:32:10,42.805,6.029,CST-1368DR,4363,4790,11662,01.168,551
2023-03-05T14:35:11,42.805,6.029,CST-1368DR,4363,4791,11664,01.167,551
2023-03-05T14:38:13,42.805,6.029,CST-1368DR,4363,4790,11663,01.167,551
2023-03-05T14:41:15,42.805,6.029,CST-1368DR,4363,4777,11631,01.178,551
2023-03-05T14:44:16,42.805,6.029,CST-1368DR,4363,4791,11665,01.167,551
2023-03-05T14:47:18,42.805,6.029,CST-1368DR,4363,4790,11662,01.168,551
2023-03-05T14:50:19,42.805,6.029,CST-1368DR,4363,4790,11662,01.168,551
2023-03-05T14:53:21,42.805,6.029,CST-1368DR,4363,4787,11655,01.170,551
2023-03-05T14:56:22,42.805,6.029,CST-1368DR,4363,4788,11657,01.170,551
2023-03-05T14:59:24,42.805,6.029,CST-1368DR,4363,4788,11658,01.169,551
2023-03-05T15:02:26,42.805,6.029,CST-1368DR,4363,4789,11661,01.168,551
2023-03-05T15:05:27,42.805,6.029,CST-1368DR,4363,4787,11656,01.170,551
2023-03-05T15:08:29,42.805,6.029,CST-1368DR,4363,4789,11660,01.169,551
2023-03-05T15:11:30,42.805,6.029,CST-1368DR,4363,4788,11658,01.169,551
2023-03-05T15:14:32,42.805,6.029,CST-1368DR,4363,4780,11639,01.176,551
2023-03-05T15:17:34,42.805,6.029,CST-1368DR,4363,4787,11655,01.170,551
2023-03-05T15:20:35,42.805,6.029,CST-1368DR,4363,4787,11655,01.170,551
2023-03-05T15:23:37,42.805,6.029,CST-1368DR,4363,4786,11652,01.171,551
2023-03-05T15:26:38,42.805,6.029,CST-1368DR,4363,4785,11649,01.172,551
2023-03-05T15:29:40,42.805,6.029,CST-1368DR,4363,4786,11654,01.171,551
2023-03-05T15:32:41,42.805,6.029,CST-1368DR,4363,4786,11652,01.171,551
2023-03-05T15:35:43,42.805,6.029,CST-1368DR,4362,4782,11646,01.173,551
2023-03-05T15:38:45,42.805,6.029,CST-1368DR,4363,4786,11654,01.171,551
2023-03-05T15:41:46,42.805,6.029,CST-1368DR,4362,4778,11636,01.177,551
2023-03-05T15:44:48,42.805,6.029,CST-1368DR,4363,4787,11656,01.170,551
2023-03-05T15:47:49,42.805,6.029,CST-1368DR,4363,4786,11653,01.171,551
2023-03-05T15:50:51,42.805,6.029,CST-1368DR,4363,4787,11655,01.170,551
2023-03-05T15:53:52,42.805,6.029,CST-1368DR,4363,4785,11649,01.172,551
2023-03-05T15:56:54,42.805,6.029,CST-1368DR,4363,4787,11655,01.170,551
2023-03-05T15:59:56,42.805,6.029,CST-1368DR,4363,4787,11654,01.171,551
2023-03-05T16:02:57,42.805,6.029,CST-1368DR,4363,4785,11651,01.172,551
2023-03-05T16:05:59,42.805,6.029,CST-1368DR,4363,4787,11656,01.170,551
2023-03-05T16:09:00,42.805,6.029,CST-1368DR,4363,4787,11654,01.171,551
2023-03-05T16:12:02,42.805,6.029,CST-1368DR,4363,4787,11656,01.170,551
2023-03-05T16:15:04,42.805,6.029,CST-1368DR,4363,4790,11663,01.167,551
2023-03-05T16:18:05,42.805,6.029,CST-1368DR,4363,4781,11641,01.175,551
2023-03-05T16:21:07,42.805,6.029,CST-1368DR,4363,4788,11658,01.169,551
2023-03-05T16:24:08,42.805,6.029,CST-1368DR,4363,4784,11648,01.173,551
2023-03-05T16:27:10,42.805,6.029,CST-1368DR,4363,4788,11657,01.170,551
2023-03-05T16:30:11,42.805,6.029,CST-1368DR,4363,4788,11657,01.170,551
2023-03-05T16:33:13,42.805,6.029,CST-1368DR,4363,4789,11660,01.169,551
2023-03-05T16:36:15,42.805,6.029,CST-1368DR,4363,4790,11663,01.167,551